• In Deutschland
  • Länderverzeichnis
  • Für 7 Tage
  • Wassertemperatur
  • Satellitenkarten
  • Wetterkarte
  • Widgets
  • user-avatar
    Anmelden

    Stündliche Wetter Forchheim

    Heute, 21 Juli, Samstag

    Zeit Temperatur Niederschläge Wind Luftdruck Luftfeuchtigkeit
    00:00 +21°C° 0,3 mm 1 m/S 734 mmHg 76%
    01:00 +21°C° 0 mm 1 m/S 733 mmHg 76%
    02:00 +20°C° 0,3 mm 1 m/S 733 mmHg 79%
    03:00 +20°C° 0,3 mm 1 m/S 733 mmHg 83%
    04:00 +19°C° 0,3 mm 1 m/S 733 mmHg 86%
    05:00 +20°C° 0,3 mm 1 m/S 733 mmHg 85%
    06:00 +20°C° 0,3 mm 1 m/S 733 mmHg 84%
    07:00 +21°C° 0 mm 1 m/S 733 mmHg 83%
    08:00 +21°C° 0,6 mm 1 m/S 734 mmHg 84%
    09:00 +21°C° 0,6 mm 1 m/S 734 mmHg 85%
    10:00 +20°C° 0,6 mm 2 m/S 734 mmHg 86%
    11:00 +22°C° 0,7 mm 1 m/S 734 mmHg 85%
    12:00 +22°C° 0,7 mm 1 m/S 734 mmHg 84%
    13:00 +22°C° 0,7 mm 1 m/S 734 mmHg 83%
    14:00 +23°C° 0,6 mm 1 m/S 734 mmHg 82%
    15:00 +23°C° 0,6 mm 1 m/S 734 mmHg 81%
    16:00 +23°C° 0,6 mm 1 m/S 734 mmHg 79%
    17:00 +23°C° 0,6 mm 1 m/S 734 mmHg 82%
    18:00 +22°C° 0,6 mm 1 m/S 734 mmHg 85%
    19:00 +22°C° 0,6 mm 1 m/S 734 mmHg 88%
    20:00 +21°C° 0,2 mm 1 m/S 734 mmHg 89%
    21:00 +20°C° 0,2 mm 1 m/S 734 mmHg 90%
    22:00 +19°C° 0,2 mm 1 m/S 734 mmHg 91%
    23:00 +19°C° 0,1 mm 1 m/S 734 mmHg 92%

    Morgen, 22 Juli, Sonntag

    Zeit Temperatur Niederschläge Wind Luftdruck Luftfeuchtigkeit
    00:00 +19°C° 0,1 mm 1 m/S 734 mmHg 92%
    01:00 +18°C° 0,1 mm 1 m/S 734 mmHg 92%
    02:00 +18°C° 0,3 mm 1 m/S 734 mmHg 93%
    03:00 +18°C° 0,3 mm 1 m/S 734 mmHg 93%
    04:00 +18°C° 0,3 mm 1 m/S 734 mmHg 94%
    05:00 +19°C° 0,2 mm 1 m/S 734 mmHg 93%
    06:00 +19°C° 0,2 mm 1 m/S 735 mmHg 92%
    07:00 +20°C° 0,2 mm 1 m/S 735 mmHg 91%
    08:00 +21°C° 0,1 mm 1 m/S 735 mmHg 85%
    09:00 +22°C° 0,1 mm 1 m/S 735 mmHg 80%
    10:00 +24°C° 0,1 mm 1 m/S 735 mmHg 74%
    11:00 +25°C° 0,4 mm 1 m/S 735 mmHg 70%
    12:00 +26°C° 0,4 mm 1 m/S 735 mmHg 67%
    13:00 +27°C° 0,4 mm 1 m/S 735 mmHg 63%
    14:00 +27°C° 1,1 mm 1 m/S 735 mmHg 65%
    15:00 +26°C° 1,1 mm 1 m/S 735 mmHg 66%
    16:00 +26°C° 1,1 mm 1 m/S 735 mmHg 68%
    17:00 +25°C° 1,1 mm 1 m/S 735 mmHg 73%
    18:00 +24°C° 1,1 mm 1 m/S 735 mmHg 78%
    19:00 +24°C° 1,1 mm 1 m/S 735 mmHg 82%
    20:00 +22°C° 0,1 mm 1 m/S 735 mmHg 84%
    21:00 +21°C° 0,1 mm 1 m/S 735 mmHg 86%
    22:00 +20°C° 0,1 mm 1 m/S 736 mmHg 88%
    23:00 +19°C° 0 mm 1 m/S 736 mmHg 88%

    übermorgen, 23 Juli, Montag

    Zeit Temperatur Niederschläge Wind Luftdruck Luftfeuchtigkeit
    00:00 +19°C° 0 mm 1 m/S 736 mmHg 89%
    01:00 +16°C° 0 mm 0 m/S 736 mmHg 89%
    02:00 +18°C° 0 mm 1 m/S 736 mmHg 89%
    03:00 +18°C° 0 mm 1 m/S 736 mmHg 90%
    04:00 +16°C° 0 mm 1 m/S 736 mmHg 90%
    05:00 +18°C° 0,1 mm 1 m/S 736 mmHg 88%
    06:00 +19°C° 0,1 mm 1 m/S 737 mmHg 87%
    07:00 +20°C° 0,1 mm 1 m/S 737 mmHg 85%
    08:00 +22°C° 0,1 mm 1 m/S 737 mmHg 77%
    09:00 +24°C° 0,1 mm 1 m/S 737 mmHg 70%
    10:00 +26°C° 0,1 mm 1 m/S 737 mmHg 62%
    11:00 +27°C° 0,2 mm 1 m/S 737 mmHg 58%
    12:00 +28°C° 0,2 mm 1 m/S 737 mmHg 54%
    13:00 +29°C° 0,2 mm 1 m/S 737 mmHg 50%
    14:00 +29°C° 0,2 mm 1 m/S 737 mmHg 53%
    15:00 +28°C° 0,2 mm 1 m/S 737 mmHg 56%
    16:00 +28°C° 0,2 mm 2 m/S 737 mmHg 58%
    17:00 +27°C° 0,2 mm 2 m/S 737 mmHg 64%
    18:00 +26°C° 0,2 mm 1 m/S 737 mmHg 69%
    19:00 +25°C° 0,2 mm 1 m/S 737 mmHg 74%
    20:00 +23°C° 0 mm 1 m/S 737 mmHg 78%
    21:00 +22°C° 0 mm 1 m/S 737 mmHg 82%
    22:00 +21°C° 0 mm 1 m/S 738 mmHg 85%
    23:00 +20°C° 0 mm 1 m/S 738 mmHg 86%

    24 Juli, Dienstag

    Zeit Temperatur Niederschläge Wind Luftdruck Luftfeuchtigkeit
    00:00 +20°C° 0 mm 1 m/S 737 mmHg 88%
    01:00 +19°C° 0 mm 1 m/S 737 mmHg 89%
    02:00 +19°C° 0 mm 1 m/S 737 mmHg 89%
    03:00 +18°C° 0 mm 1 m/S 737 mmHg 90%
    04:00 +18°C° 0 mm 1 m/S 737 mmHg 90%
    05:00 +19°C° 0 mm 1 m/S 737 mmHg 86%
    06:00 +20°C° 0 mm 1 m/S 737 mmHg 82%
    07:00 +21°C° 0 mm 1 m/S 737 mmHg 78%
    08:00 +23°C° 0 mm 1 m/S 737 mmHg 70%
    09:00 +25°C° 0 mm 1 m/S 737 mmHg 62%
    10:00 +27°C° 0 mm 2 m/S 737 mmHg 54%
    11:00 +28°C° 0 mm 1 m/S 737 mmHg 51%
    12:00 +29°C° 0 mm 1 m/S 737 mmHg 48%
    13:00 +30°C° 0 mm 1 m/S 736 mmHg 45%
    14:00 +30°C° 0 mm 1 m/S 736 mmHg 46%
    15:00 +30°C° 0 mm 1 m/S 736 mmHg 47%
    16:00 +29°C° 0 mm 2 m/S 736 mmHg 48%
    17:00 +28°C° 0 mm 2 m/S 736 mmHg 54%
    18:00 +27°C° 0 mm 2 m/S 735 mmHg 59%
    19:00 +26°C° 0 mm 2 m/S 735 mmHg 65%
    20:00 +25°C° 0 mm 2 m/S 736 mmHg 70%
    21:00 +23°C° 0 mm 2 m/S 736 mmHg 75%
    22:00 +21°C° 0 mm 2 m/S 736 mmHg 80%
    23:00 +21°C° 0 mm 1 m/S 736 mmHg 81%

    25 Juli, Mittwoch

    Zeit Temperatur Niederschläge Wind Luftdruck Luftfeuchtigkeit
    00:00 +21°C° 0 mm 1 m/S 736 mmHg 83%
    01:00 +20°C° 0 mm 1 m/S 736 mmHg 85%
    02:00 +20°C° 0 mm 1 m/S 736 mmHg 86%
    03:00 +19°C° 0 mm 1 m/S 736 mmHg 87%
    04:00 +19°C° 0 mm 1 m/S 736 mmHg 88%
    05:00 +20°C° 0 mm 1 m/S 736 mmHg 83%
    06:00 +22°C° 0 mm 1 m/S 737 mmHg 78%
    07:00 +23°C° 0 mm 1 m/S 737 mmHg 74%
    08:00 +25°C° 0 mm 1 m/S 737 mmHg 67%
    09:00 +27°C° 0 mm 1 m/S 737 mmHg 60%
    10:00 +29°C° 0 mm 1 m/S 737 mmHg 53%
    11:00 +29°C° 0 mm 1 m/S 737 mmHg 50%
    12:00 +30°C° 0 mm 1 m/S 737 mmHg 47%
    13:00 +31°C° 0 mm 2 m/S 736 mmHg 43%
    14:00 +31°C° 0 mm 2 m/S 736 mmHg 44%
    15:00 +31°C° 0 mm 2 m/S 736 mmHg 45%
    16:00 +31°C° 0 mm 2 m/S 736 mmHg 45%
    17:00 +29°C° 0 mm 1 m/S 736 mmHg 51%
    18:00 +28°C° 0 mm 1 m/S 736 mmHg 57%
    19:00 +27°C° 0 mm 1 m/S 736 mmHg 63%
    20:00 +26°C° 0 mm 2 m/S 736 mmHg 67%
    21:00 +24°C° 0 mm 2 m/S 737 mmHg 71%
    22:00 +23°C° 0 mm 2 m/S 737 mmHg 75%
    23:00 +21°C° 0 mm 2 m/S 737 mmHg 76%

    26 Juli, Donnerstag

    Zeit Temperatur Niederschläge Wind Luftdruck Luftfeuchtigkeit
    00:00 +21°C° 0 mm 1 m/S 737 mmHg 77%
    01:00 +21°C° 0 mm 1 m/S 737 mmHg 78%
    02:00 +20°C° 0 mm 1 m/S 737 mmHg 79%
    03:00 +20°C° 0 mm 1 m/S 737 mmHg 80%
    04:00 +19°C° 0 mm 1 m/S 737 mmHg 81%
    05:00 +21°C° 0 mm 1 m/S 737 mmHg 77%
    06:00 +22°C° 0 mm 1 m/S 737 mmHg 74%
    07:00 +23°C° 0 mm 1 m/S 738 mmHg 70%
    08:00 +25°C° 0 mm 1 m/S 738 mmHg 63%
    09:00 +27°C° 0 mm 2 m/S 738 mmHg 56%
    10:00 +29°C° 0 mm 2 m/S 738 mmHg 48%
    11:00 +29°C° 0 mm 2 m/S 738 mmHg 45%
    12:00 +30°C° 0 mm 2 m/S 738 mmHg 42%
    13:00 +31°C° 0 mm 2 m/S 738 mmHg 39%
    14:00 +31°C° 0 mm 2 m/S 737 mmHg 40%
    15:00 +31°C° 0 mm 3 m/S 737 mmHg 40%
    16:00 +31°C° 0 mm 3 m/S 737 mmHg 41%
    17:00 +30°C° 0 mm 2 m/S 737 mmHg 47%
    18:00 +28°C° 0 mm 2 m/S 737 mmHg 53%
    19:00 +27°C° 0 mm 2 m/S 737 mmHg 59%
    20:00 +25°C° 0 mm 2 m/S 737 mmHg 62%
    21:00 +24°C° 0 mm 2 m/S 738 mmHg 65%
    22:00 +21°C° 0 mm 2 m/S 738 mmHg 68%
    23:00 +20°C° 0 mm 2 m/S 738 mmHg 69%
    Mehr zeigen